Location: Bakhuizen
(52.8696°N, 5.4575°E)
Time: 23:11:44
(UTC+00:00)

Cosmos 1515 Rocket - Pass Details

Date: 11 May 2021
Orbit: 606 x 630 km, 82.5° (Epoch: 24 June)

Event Time Altitude Azimuth Distance (km) Brightness Sun altitude
Exits shadow 20:29:38 - 166° (SSE) 2,207 5.9 -8.6°
Reaches altitude 10° 20:30:12 10° 164° (SSE) 1,990 5.6 -8.6°
Maximum altitude 20:34:22 43° 93° (E) 876 4.0 -9.1°
Drops below altitude 10° 20:38:32 10° 22° (NNE) 1,991 6.5 -9.5°
Sets 20:40:50 0° 16° (NNE) 2,898 7.5 -9.7°
